Starlink 35942

operational
NORAD ID: 66926 Int'l Des: 2025-286 Owner: SPXS Country: US Constellation: starlink
LEOCIRCULAR

About Starlink 35942

Description loading...

Live Position

Loading 3D Globe...

Upcoming Passes

Altitude History

Altitude vs Time

uPlot chart will show altitude changes over time

Two-Line Element Set

1 66926U 25286B 25347.25002315 -.01203402 44703-3 -28176-2 0 9992
2 66926 53.1575 48.1489 0000900 81.5893 85.1202 15.96314786 2071
Epoch: Dec 13, 2025 • Age: 20 hours

Current Status

Altitude 294.0 km
Velocity 7.73 km/s
Sub-Earth Point -14.29°S, 126.77°E
Launch Date Dec 7, 2025
Age 6 days
Type internet

Technical Details

Classification Payload
Mass 575.00 kg
Dry Mass 530.00 kg
Total Mass 575.00 kg
Length 0.30 m
Diameter 4.10 m
Span 29.00 m
Shape Box + pan
Manufacturer SPXS
Bus Type Starlink V2MO
Phase Status In Orbit
Owner/State SPXS/US

Large Constellations

Loading constellations...